Sidney-Richland, MT

11:28 AM MDT on March 27, 2017 (GMT -0600)
Sidney-Richland Municipal

Weather History for KSDY - October, 2013

Change the Weather History Date:

Thursday, October 3, 2013

  Actual Average Record
Temperature  
Mean Temperature 46 °F -  
Max Temperature 51 °F 66 °F 86 °F (1963)
Min Temperature 41 °F 38 °F 15 °F (1999)
Degree Days  
Heating Degree Days 19    
Moisture  
Dew Point 33 °F    
Average Humidity 59    
Maximum Humidity 76    
Minimum Humidity 50    
Precipitation  
Precipitation 0.00 in - - ()
Sea Level Pressure  
Sea Level Pressure 30.15 in    
Wind  
Wind Speed 8 mph (North)    
Max Wind Speed 15 mph    
Max Gust Speed 21 mph    
Visibility 10 miles    
Events      
Averages and records for this station are not official NWS values.
T = Trace of Precipitation, MM = Missing Value Source: NWS Daily Summary

Daily Weather History Graph

Daily Weather History Graph

Search for Another Location

Airport or City:

Trip Planner

Search our weather history database for the weather conditions in past years. The results will help you decide how hot, cold, wet, or windy it might be!

Date:

Astronomy

Oct. 03, 2013 Rise Set
Actual Time 6:59 AM MDT 6:31 PM MDT
Civil Twilight 6:28 AM MDT 7:02 PM MDT
Nautical Twilight 5:52 AM MDT 7:37 PM MDT
Astronomical Twilight 5:16 AM MDT 8:14 PM MDT
Moon 5:31 AM MDT (10/3) 5:42 PM MDT (10/3)
Length of Visible Light 12h 33m
Length of Day
11h 32m
Waning Crescent, 2% of the Moon is Illuminated
Oct 3
Waning Crescent
Oct 4
New
Oct 11
First Quarter
Oct 18
Full
Oct 26
Last Quarter

Hourly Weather History & Observations

Time (MDT) Temp. Windchill Dew Point Humidity Pressure Visibility Wind Dir Wind Speed Gust Speed Precip Events Conditions
12:15 AM 42.8 °F 39.3 °F 28.4 °F 57% 30.05 in 10.0 mi NW 5.8 mph - N/A   Clear
12:55 AM 44.6 °F 41.4 °F 28.4 °F 53% 30.04 in 10.0 mi NW 5.8 mph - N/A   Clear
1:15 AM 44.6 °F 40.7 °F 28.4 °F 53% 30.04 in 10.0 mi NW 6.9 mph - N/A   Clear
1:35 AM 44.6 °F 40.7 °F 28.4 °F 53% 30.05 in 10.0 mi NW 6.9 mph - N/A   Clear
1:55 AM 44.6 °F 42.2 °F 28.4 °F 53% 30.05 in 10.0 mi NW 4.6 mph - N/A   Clear
2:15 AM 44.6 °F 43.1 °F 28.4 °F 53% 30.05 in 10.0 mi NW 3.5 mph - N/A   Clear
2:35 AM 44.6 °F 42.2 °F 28.4 °F 53% 30.04 in 10.0 mi NW 4.6 mph - N/A   Clear
2:55 AM 44.6 °F 42.2 °F 28.4 °F 53% 30.04 in 10.0 mi NW 4.6 mph - N/A   Clear
3:15 AM 44.6 °F 42.2 °F 30.2 °F 57% 30.05 in 10.0 mi NNW 4.6 mph - N/A   Clear
3:35 AM 44.6 °F 41.4 °F 30.2 °F 57% 30.05 in 10.0 mi NNW 5.8 mph - N/A   Clear
3:55 AM 44.6 °F 43.1 °F 30.2 °F 57% 30.06 in 10.0 mi NNW 3.5 mph - N/A   Clear
4:15 AM 44.6 °F - 30.2 °F 57% 30.07 in 10.0 mi Calm Calm - N/A   Clear
4:35 AM 44.6 °F 41.4 °F 30.2 °F 57% 30.06 in 10.0 mi NNE 5.8 mph - N/A   Clear
4:55 AM 44.6 °F - 30.2 °F 57% 30.07 in 10.0 mi Calm Calm - N/A   Partly Cloudy
5:35 AM 42.8 °F 40.1 °F 30.2 °F 61% 30.08 in 10.0 mi NNW 4.6 mph - N/A   Partly Cloudy
5:55 AM 42.8 °F 38.6 °F 30.2 °F 61% 30.08 in 10.0 mi North 6.9 mph - N/A   Scattered Clouds
6:15 AM 42.8 °F 38.0 °F 30.2 °F 61% 30.09 in 10.0 mi North 8.1 mph - N/A   Partly Cloudy
6:35 AM 42.8 °F 38.6 °F 30.2 °F 61% 30.09 in 10.0 mi North 6.9 mph - N/A   Scattered Clouds
6:55 AM 42.8 °F 37.5 °F 30.2 °F 61% 30.09 in 10.0 mi North 9.2 mph - N/A   Mostly Cloudy
7:15 AM 42.8 °F 37.5 °F 30.2 °F 61% 30.09 in 10.0 mi NNE 9.2 mph - N/A   Scattered Clouds
7:55 AM 42.8 °F 38.0 °F 32.0 °F 66% 30.10 in 10.0 mi North 8.1 mph - N/A   Mostly Cloudy
8:15 AM 42.8 °F 37.5 °F 32.0 °F 66% 30.10 in 10.0 mi NNE 9.2 mph - N/A   Mostly Cloudy
8:35 AM 44.6 °F 39.2 °F 33.8 °F 66% 30.10 in 10.0 mi North 10.4 mph - N/A   Clear
8:55 AM 44.6 °F 39.7 °F 33.8 °F 66% 30.11 in 10.0 mi North 9.2 mph - N/A   Clear
9:15 AM 44.6 °F 39.2 °F 33.8 °F 66% 30.12 in 10.0 mi NNE 10.4 mph - N/A   Partly Cloudy
9:35 AM 44.6 °F 39.2 °F 33.8 °F 66% 30.12 in 10.0 mi NNE 10.4 mph - N/A   Mostly Cloudy
9:55 AM 46.4 °F 40.7 °F 33.8 °F 62% 30.13 in 10.0 mi NNE 12.7 mph - N/A   Overcast
10:15 AM 46.4 °F 40.7 °F 33.8 °F 62% 30.13 in 10.0 mi NNE 12.7 mph - N/A   Mostly Cloudy
10:55 AM 46.4 °F 41.1 °F 33.8 °F 62% 30.14 in 10.0 mi NNE 11.5 mph - N/A   Mostly Cloudy
11:15 AM 46.4 °F 40.7 °F 33.8 °F 62% 30.14 in 10.0 mi NNE 12.7 mph - N/A   Mostly Cloudy
11:35 AM 48.2 °F - 33.8 °F 58% 30.14 in 10.0 mi NNE 13.8 mph 19.6 mph N/A   Clear
11:55 AM 48.2 °F - 35.6 °F 62% 30.14 in 10.0 mi NE 13.8 mph - N/A   Clear
12:15 PM 48.2 °F - 35.6 °F 62% 30.14 in 10.0 mi NNE 15.0 mph - N/A   Clear
12:35 PM 50.0 °F - 35.6 °F 58% 30.14 in 10.0 mi NE 12.7 mph 20.7 mph N/A   Partly Cloudy
12:55 PM 51.8 °F - 35.6 °F 54% 30.14 in 10.0 mi NE 12.7 mph - N/A   Partly Cloudy
1:16 PM 51.8 °F - 35.6 °F 54% 30.13 in 10.0 mi NE 15.0 mph 18.4 mph N/A   Clear
1:35 PM 51.8 °F - 33.8 °F 50% 30.14 in 10.0 mi NE 11.5 mph 17.3 mph N/A   Scattered Clouds
1:55 PM 51.8 °F - 35.6 °F 54% 30.14 in 10.0 mi North 12.7 mph - N/A   Overcast
2:15 PM 51.8 °F - 35.6 °F 54% 30.14 in 10.0 mi NNE 12.7 mph 16.1 mph N/A   Overcast
2:35 PM 51.8 °F - 35.6 °F 54% 30.14 in 10.0 mi NNE 12.7 mph - N/A   Overcast
2:55 PM 51.8 °F - 33.8 °F 50% 30.15 in 10.0 mi NNE 10.4 mph - N/A   Overcast
3:15 PM 51.8 °F - 33.8 °F 50% 30.16 in 10.0 mi NE 8.1 mph - N/A   Overcast
3:35 PM 51.8 °F - 35.6 °F 54% 30.16 in 10.0 mi NNE 12.7 mph - N/A   Overcast
3:55 PM 51.8 °F - 33.8 °F 50% 30.17 in 10.0 mi NE 11.5 mph - N/A   Overcast
4:15 PM 51.8 °F - 35.6 °F 54% 30.18 in 10.0 mi NNE 11.5 mph - N/A   Overcast
4:35 PM 51.8 °F - 35.6 °F 54% 30.18 in 10.0 mi North 12.7 mph - N/A   Overcast
4:55 PM 51.8 °F - 33.8 °F 50% 30.19 in 10.0 mi North 11.5 mph - N/A   Scattered Clouds
5:15 PM 50.0 °F - 33.8 °F 54% 30.19 in 10.0 mi North 13.8 mph - N/A   Clear
5:35 PM 50.0 °F - 33.8 °F 54% 30.19 in 10.0 mi North 13.8 mph - N/A   Mostly Cloudy
6:15 PM 48.2 °F - 33.8 °F 58% 30.20 in 10.0 mi North 12.7 mph - N/A   Overcast
6:35 PM 48.2 °F - 33.8 °F 58% 30.21 in 10.0 mi North 12.7 mph - N/A   Overcast
6:55 PM 48.2 °F - 33.8 °F 58% 30.22 in 10.0 mi North 11.5 mph 16.1 mph N/A   Overcast
7:15 PM 48.2 °F - 33.8 °F 58% 30.23 in 10.0 mi North 9.2 mph - N/A   Overcast
7:35 PM 48.2 °F - 33.8 °F 58% 30.23 in 10.0 mi North 10.4 mph - N/A   Overcast
7:55 PM 48.2 °F - 33.8 °F 58% 30.25 in 10.0 mi North 10.4 mph - N/A   Overcast
8:15 PM 48.2 °F - 33.8 °F 58% 30.26 in 10.0 mi North 8.1 mph - N/A   Overcast
8:35 PM 46.4 °F 41.5 °F 33.8 °F 62% 30.27 in 10.0 mi North 10.4 mph - N/A   Overcast
8:55 PM 46.4 °F 40.4 °F 33.8 °F 62% 30.27 in 10.0 mi North 13.8 mph 20.7 mph N/A   Overcast
9:35 PM 46.4 °F 40.4 °F 33.8 °F 62% 30.29 in 10.0 mi North 13.8 mph - N/A   Overcast
10:35 PM 42.8 °F 36.2 °F 33.8 °F 70% 30.28 in 10.0 mi North 12.7 mph 19.6 mph N/A   Partly Cloudy
10:55 PM 42.8 °F 36.2 °F 33.8 °F 70% 30.29 in 10.0 mi NNW 12.7 mph - N/A   Clear
11:15 PM 41.0 °F 34.3 °F 33.8 °F 76% 30.30 in 10.0 mi North 11.5 mph - N/A   Scattered Clouds
11:35 PM 41.0 °F 34.7 °F 33.8 °F 76% 30.31 in 10.0 mi North 10.4 mph - N/A   Scattered Clouds
11:55 PM 41.0 °F 34.7 °F 33.8 °F 76% 30.31 in 10.0 mi North 10.4 mph - N/A   Scattered Clouds